Weather Roundup
Issued by NWS

Home | Current Version | Previous Version | Graphics & Text | Print | Product List | Glossary Off
Versions: 1 2 3 4 5 6 7 8 9 10 11 12 13 14 15 16 17 18 19 20 21 22 23 24 25 26 27 28 29 30 31 32 33 34 35 36 37 38 39 40 41 42 43 44 45 46 47 48 49 50

000
NZUS93 KARX 232010
HRRWXR

CURRENT HOURLY OBSERVATIONS ACROSS
MUCH OF THE UPPER MISSISSIPPI VALLEY
NATIONAL WEATHER SERVICE LA CROSSE WI
300 PM CDT THU MAR 23 2017


...SOUTHEAST MINNESOTA...


CITY           SKY/WX    TMP DP  RH WIND       PRES   REMARKS
ROCHESTER      CLOUDY    37  31  78 SE31G44   29.84F WCI  24
ROCHESTER/MAYO CLOUDY    38  30  72 SE25G38   29.89F WCI  27
WINONA         CLOUDY    41  27  56 SE14G21   30.00F
AUSTIN         LGT RAIN  36  30  80 S15G26    29.89R WCI  26
ALBERT LEA     CLOUDY    36  30  80 SE23G31   29.86R WCI  24
DODGE CENTER   CLOUDY    36  30  80 S21       29.94R WCI  24
PRESTON        LGT RAIN  37  30  75 SE21G30   29.94F WCI  26
OWATONNA       CLOUDY    37  30  75 SE17G23   29.92F WCI  28
FARIBAULT      CLOUDY    37  30  75 SE16G22   29.94F WCI  28
$$

...ELSEWHERE IN MINNESOTA...


CITY           SKY/WX    TMP DP  RH WIND       PRES   REMARKS
MINNEAPOLIS    CLOUDY    39  28  64 SE15      29.95F WCI  31
INTNL FALLS    LGT SNOW  36  28  73 VRB5      29.87F WCI  32
DULUTH         LGT RAIN  34  28  79 SE12      29.92F WCI  25
RED WING       CLOUDY    43  25  49 SE9G21    29.96F
REDWOOD FALLS  CLOUDY    42  30  62 SE23G29   29.82F
MANKATO        CLOUDY    38  29  70 SE18      29.88F WCI  28
WORTHINGTON    CLOUDY    40  35  83 SE16      29.78F WCI  31
FAIRMONT       CLOUDY    39  32  76 SE21      29.83F WCI  29
$$

...SOUTHWEST WISCONSIN...


CITY           SKY/WX    TMP DP  RH WIND       PRES   REMARKS
LA CROSSE      CLOUDY    44  24  45 S15       30.07F
PRAIRIE DU CHI CLOUDY    42  26  53 SE12      30.09F
BOSCOBEL       CLOUDY    45  23  42 S9        30.11F
LONE ROCK      CLOUDY    46  22  38 S10       30.11F
PLATTEVILLE    CLOUDY    42  28  56 SE14G20   30.11F
FORT MC COY    CLOUDY    42  23  46 SE12      30.09F
CAMP DOUGLAS   CLOUDY    43  23  45 SE10G18   30.09F
MAUSTON-NEW LI CLOUDY    43  24  46 SE10      30.09F
VIROQUA        CLOUDY    40  25  54 S15       30.07F WCI  32
WIS DELLS      CLOUDY    42  21  42 S15       30.11F
$$

...ELSEWHERE IN WISCONSIN...


CITY           SKY/WX    TMP DP  RH WIND       PRES   REMARKS
MILWAUKEE      CLOUDY    42  23  46 SE15G22   30.21F
MADISON        CLOUDY    45  19  35 S16       30.13F
GREEN BAY      CLOUDY    39  27  62 S14       30.18F WCI  31
EAU CLAIRE     CLOUDY    41  21  44 SE14      29.98F
BLACK RVR FLS  CLOUDY    42  18  38 SE8       30.06F
MEDFORD        CLOUDY    37  22  55 S15G22    30.05F WCI  28
WAUSAU         CLOUDY    41  19  41 S16       30.08F
WIS RAPIDS     CLOUDY    40  21  46 S10       30.12F WCI  33
MARSHFIELD     CLOUDY    38  21  50 S14       30.08F WCI  30
RICE LAKE      CLOUDY    38  23  55 SE14      29.99F WCI  30
$$

...NORTHEAST IOWA...


CITY           SKY/WX    TMP DP  RH WIND       PRES   REMARKS
WATERLOO       CLOUDY    39  35  86 SE17      29.97F WCI  30
DUBUQUE        CLOUDY    39  27  62 S17       30.09F WCI  30
DECORAH        CLOUDY    39  30  70 S13G21    30.05S WCI  32
MASON CITY     CLOUDY    38  32  79 SE23G31   29.90F WCI  27
CHARLES CITY   MIX PCPN  37  34  87 SE25G39   29.90F WCI  26
OELWEIN        CLOUDY    39  37  93 SE18G25   30.03F WCI  30
$$

...ELSEWHERE IN IOWA...


CITY           SKY/WX    TMP DP  RH WIND       PRES   REMARKS
DES MOINES     PTSUNNY   56  35  45 SE20G28   29.89F
IOWA CITY      CLOUDY    42  37  82 SE12G24   30.06F
FORT DODGE     CLOUDY    48  34  57 SE18G24   29.86F
MARSHALLTOWN   CLOUDY    43  33  68 SE21G30   29.94F
CEDAR RAPIDS   CLOUDY    39  37  92 SE16      30.03F WCI  30
$$

...NORTHERN ILLINOIS...


CITY           SKY/WX    TMP DP  RH WIND       PRES   REMARKS
CHICAGO-OHARE  CLOUDY    49  23  36 S14G22    30.21F
CHICAGO-MIDWAY CLOUDY    48  23  37 S14G22    30.22F
MOLINE         CLOUDY    43  32  65 SE16G23   30.11F
ROCKFORD       CLOUDY    44  23  43 S20       30.20F
PEORIA         CLOUDY    41  33  73 SE13      30.17F
$$

NOTE: "FAIR" INDICATES FEW OR NO CLOUDS BELOW 12,000 FEET WITH NO
SIGNIFICANT WEATHER AND/OR OBSTRUCTIONS TO VISIBILITY. WIND
SPEEDS ARE IN MILES-PER-HOUR.




USA.gov is the U.S. government's official web portal to all federal, state and local government web resources and services.